Regional Weather Roundup
Issued by NWS

Home | Current Version | Previous Version | Text Only | Print | Product List | Glossary On
Versions: 1 2 3 4 5 6 7 8 9 10 11 12 13 14 15 16 17 18 19 20 21 22 23 24 25 26 27 28 29 30 31 32 33 34 35 36 37 38 39 40 41 42 43 44 45 46 47 48 49 50
000
ASCA42 TJSJ 262010
RWRPR
PUERTO RICO/U.S. VIRGIN ISLANDS HOURLY WEATHER ROUNDUP
NATIONAL WEATHER SERVICE SAN JUAN PR
400 PM AST WED APR 26 2017

PRZ001>002-007>008-010-262100-
PUERTO RICO

CITY           SKY/WX    TMP DP  RH WIND       PRES   REMARKS
SAN JUAN LMM   PTSUNNY   79  75  89 S5        29.93S
AGUADILLA      PTSUNNY   82  73  74 E7        29.94F
CEIBA          SUNNY     82  73  74 E12       29.96S
$$

VIZ001>002-262100-
U.S. VIRGIN ISLANDS

CITY           SKY/WX    TMP DP  RH WIND       PRES   REMARKS
CHARLOTTE AMA  PTSUNNY   82  73  74 SE12      29.93F
CHRISTIANSTED  MOSUNNY   84  73  70 SE10      29.94S HX  91
$$

HOURLY WEATHER ROUNDUP FOR THE NEWS MEDIA

CITY           SKY/WX    TMP DP  RH WIND       PRES   REMARKS
ORLANDO        SUNNY     84  53  34 S14G20    29.84F
NEW YORK       LGT RAIN  60  57  89 N9        29.77F
NEWARK         CLOUDY    60  57  89 NE6       29.76F
CHICAGO        CLOUDY    73  57  57 SW15G22   29.48R
HARTFORD       LGT RAIN  58  57  97 E6        29.78F FOG
BOSTON         LGT RAIN  53  53 100 NE6       29.82F VSB 1/4
DALLAS         CLOUDY    59  48  67 NW20G30   29.67R
LOS ANGELES    PTSUNNY   70  52  52 SW14      29.88F
WASHINGTON DC  PTSUNNY   71  58  63 VRB5      29.77F


USA.gov is the U.S. government's official web portal to all federal, state and local government web resources and services.